CAPE
21 35 13 0 6 0 3 7 1 0 0 0 0 0 0 0 0 0 0 0 0 0 0 0 0 30 94 292 437 168 94 38 32 35 10 6 5 3 4 0 0 0 0 0
28 10 0 1 7 7 14 18 16 0 1 1 0 0 0 0 0 0 0 0 0 0 0 15 89 11 19 31 355 265 221 120 82 48 4 6 20 2 3 2 0 0 0 0
8 0 1 9 13 23 21 18 6 3 0 10 5 12 0 0 0 0 0 0 0 0 0 0 21 2 3 2 1 160 266 190 92 69 28 13 52 39 39 7 6 0 0 0
27 0 0 4 7 9 35 0 6 8 34 15 4 11 0 0 0 0 0 0 0 0 0 1 1 0 1 2 0 1 1 196 121 66 16 9 12 12 5 3 2 0 0 0
1 1 33 33 5 2 12 4 6 6 22 35 19 36 0 0 0 0 0 0 0 0 0 4 1 0 1 1 1 2 1 1 1 92 47 8 5 12 21 9 7 6 3 1
6 0 7 3 4 7 1 3 6 18 35 32 0 41 0 0 0 0 0 0 0 0 0 1 3 2 2 2 1 1 1 1 0 3 0 17 68 50 45 9 2 23 9 3
4 0 0 4 16 11 8 6 7 15 32 4 0 11 0 0 9 0 6 0 5 2 2 3 5 4 3 3 3 1 0 1 2 1 0 0 1 1 13 25 15 25 37 23
8 0 8 13 19 11 6 3 1 1 0 0 0 0 0 4 4 0 1 37 1 2 4 5 6 4 6 3 3 2 2 1 1 0 2 0 0 1 1 0 14 38 15 14
10 0 0 0 16 21 16 14 0 17 2 15 1 20 6 4 5 12 2 2 4 3 4 7 4 4 4 3 3 3 3 3 2 2 1 1 1 1 1 1 0 1 0 0
4 8 1 10 5 2 8 3 10 33 6 17 10 6 7 8 6 4 2 2 2 7 4 3 7 7 5 4 2 3 3 2 2 2 2 2 2 1 1 1 0 1 0 0
15 15 0 3 3 10 15 20 20 17 0 36 8 6 13 17 9 5 4 5 5 4 1 3 3 6 4 2 2 3 1 1 2 1 1 1 2 1 1 1 1 1 0 0
4 6 10 0 6 0 1 16 20 10 4 5 0 5 9 15 8 4 3 4 5 2 1 1 2 1 2 2 2 1 1 0 1 1 1 1 1 1 1 1 1 1 1 1
2 6 0 0 0 0 15 11 11 7 2 4 2 4 10 8 3 3 2 3 2 1 0 1 0 1 1 2 1 1 1 1 1 1 0 0 0 1 1 0 1 1 0 1
0 2 7 5 14 14 2 14 8 0 8 2 15 4 4 6 6 5 3 3 2 2 2 2 1 1 1 1 1 0 1 1 1 1 1 1 1 1 0 0 0 0 0 0
0 1 0 1 3 1 3 3 9 14 20 5 8 4 7 9 8 9 5 3 1 1 1 1 1 1 1 0 0 0 0 0 0 0 0 1 1 0 0 0 0 0 0 0
0 0 0 0 0 0 0 0 2 0 5 4 4 4 9 6 4 7 5 5 4 3 3 2 2 1 1 0 0 0 0 0 0 0 0 0 0 0 0 0 0 0 0 0
0 0 0 0 0 0 0 2 1 0 3 5 2 8 5 2 2 3 7 4 4 3 3 3 2 2 2 0 0 0 0 0 0 0 0 0 0 0 0 0 0 0 0 0
1 0 0 0 0 1 4 0 0 2 0 1 3 4 5 3 3 3 4 3 1 1 0 0 0 0 0 0 0 0 0 0 0 0 0 0 0 0 0 0 0 0 0 0
0 0 0 0 0 0 0 0 0 0 0 0 0 0 0 0 0 0 0 0 0 0 0 0 0 0 0 0 0 0 0 0 0 0 0 0 0 0 0 0 0 0 0 0
0 0 0 0 0 0 0 0 0 0 0 0 0 0 0 0 1 2 0 0 0 0 0 0 0 0 0 0 0 0 0 0 0 0 0 0 0 0 0 0 0 0 0 0
0 0 0 0 0 0 0 0 0 0 0 0 0 0 0 0 0 0 0 0 0 0 0 0 0 0 0 0 0 0 0 0 0 0 0 0 0 0 0 0 0 0 0 0
0 0 0 0 0 0 0 0 0 0 0 0 0 0 0 0 0 0 0 0 0 0 0 0 0 0 0 0 0 0 0 0 0 0 0 0 0 0 0 0 0 0 0 0
0 0 0 0 0 0 0 0 0 0 0 0 0 0 0 0 0 0 0 0 0 0 0 0 0 0 0 0 0 0 0 0 0 0 0 0 0 0 0 0 0 0 0 0
0 0 0 0 0 0 0 0 0 0 0 0 0 0 0 0 0 0 0 0 0 0 0 0 0 0 0 0 0 0 0 0 0 0 0 0 0 0 0 0 0 0 0 0
0 0 0 0 0 0 0 0 0 0 0 0 0 0 0 0 0 0 0 0 0 0 0 0 0 0 0 0 0 0 0 0 0 0 0 0 0 0 0 0 0 0 0 0
0 0 0 0 0 0 0 0 0 0 0 0 0 0 0 0 0 0 0 0 0 0 0 0 0 0 0 0 0 0 0 0 0 0 0 0 0 0 0 0 0 0 0 0
CIN
0 0 0 0 0 0 0 0 0 0 0 0 0 0 0 0 0 0 0 0 0 0 0 0 0 -16 -2 -4 0 -1 -5 -46 -15 -15 0 -1 -4 -13 0 0 0 0 0 0
0 0 0 0 0 0 0 0 0 0 0 0 0 0 0 0 0 0 0 0 0 0 0 0 -4 -64 -25 -7 -1 0 0 -20 -56 -1 -16 -1 -25 0 -4 0 0 0 0 0
-1 0 0 -3 0 0 0 0 0 0 -1 0 0 0 0 0 0 0 0 0 0 0 0 0 -22 0 0 0 0 -9 0 0 -7 -8 -32 -11 -11 -4 -3 -2 0 0 0 0
0 0 0 0 0 0 0 0 0 0 -1 0 0 0 0 0 0 0 0 0 0 0 0 0 0 0 0 0 0 0 0 0 -16 -18 -18 0 0 -66 -82 0 0 0 0 0
0 0 0 0 0 -1 0 0 0 0 0 0 0 0 0 0 0 0 0 0 0 0 0 0 0 0 0 0 0 0 0 0 0 -1 -9 -31 -1 -31 -1 -19 -43 0 0 0
0 0 0 0 0 0 0 0 0 0 0 0 0 0 0 0 0 0 0 0 0 0 0 0 0 0 0 0 0 0 0 0 0 0 0 -8 -4 -2 -1 -16 -13 -17 -6 0
0 0 0 0 0 0 0 0 0 0 0 0 0 0 0 0 -9 -3 -4 0 -14 0 0 0 0 0 0 0 0 0 0 0 0 0 0 0 0 0 -1 -3 -8 -1 -12 -30
0 0 -1 0 0 -1 0 0 0 0 0 0 0 0 0 0 0 0 -7 -29 -6 0 0 0 0 0 0 0 0 0 0 0 0 0 0 0 0 0 0 0 -5 -11 -19 -57
0 0 0 0 0 0 0 0 0 0 0 0 -1 0 0 0 0 -30 0 0 0 0 0 0 0 0 0 0 0 0 0 0 0 0 0 0 0 0 0 0 0 0 0 0
0 0 -4 0 0 -1 0 0 0 0 0 -2 0 0 0 0 0 0 0 0 0 0 0 0 0 0 0 0 0 0 0 0 0 0 0 0 0 0 0 0 0 0 0 0
0 0 0 0 0 0 0 0 0 0 0 0 0 0 0 0 0 0 0 0 0 0 0 0 0 0 0 0 0 0 0 0 0 0 0 0 0 0 0 0 0 0 0 0
0 0 0 0 0 0 0 0 0 0 0 0 -1 0 0 0 0 0 0 0 0 0 0 0 0 0 0 0 0 0 0 0 0 0 0 0 0 0 0 0 0 0 0 0
0 -1 0 0 0 0 0 0 0 0 0 0 0 0 0 0 0 0 0 0 0 0 0 0 0 0 0 0 0 0 0 0 0 0 0 0 0 0 0 0 0 0 0 0
0 0 0 0 0 0 0 0 0 0 0 0 0 0 0 0 0 0 0 0 0 0 0 0 0 0 0 0 0 0 0 0 0 0 0 0 0 0 0 0 0 0 0 0
0 0 0 0 0 0 0 0 0 0 0 0 0 0 0 0 0 0 0 0 0 0 0 0 0 0 0 0 0 0 0 0 0 0 0 0 0 0 0 0 0 0 0 0
0 0 0 0 0 0 0 0 0 0 0 0 0 0 0 0 0 0 0 0 0 0 0 0 0 0 0 0 0 0 0 0 0 0 0 0 0 0 0 0 0 0 0 0
0 0 0 0 0 0 0 0 0 0 0 0 0 0 0 0 0 0 0 0 0 0 0 0 0 0 0 0 0 0 0 0 0 0 0 0 0 0 0 0 0 0 0 0
0 0 0 0 0 0 0 0 0 0 0 0 0 0 0 0 0 0 0 0 0 0 0 0 0 0 0 0 0 0 0 0 0 0 0 0 0 0 0 0 0 0 0 0
0 0 0 0 0 0 0 0 0 0 0 0 0 0 0 0 0 0 0 0 0 0 0 0 0 0 0 0 0 0 0 0 0 0 0 0 0 0 0 0 0 0 0 0
0 0 0 0 0 0 0 0 0 0 0 0 0 0 0 0 0 0 0 0 0 0 0 0 0 0 0 0 0 0 0 0 0 0 0 0 0 0 0 0 0 0 0 0
0 0 0 0 0 0 0 0 0 0 0 0 0 0 0 0 0 0 0 0 0 0 0 0 0 0 0 0 0 0 0 0 0 0 0 0 0 0 0 0 0 0 0 0
0 0 0 0 0 0 0 0 0 0 0 0 0 0 0 0 0 0 0 0 0 0 0 0 0 0 0 0 0 0 0 0 0 0 0 0 0 0 0 0 0 0 0 0
0 0 0 0 0 0 0 0 0 0 0 0 0 0 0 0 0 0 0 0 0 0 0 0 0 0 0 0 0 0 0 0 0 0 0 0 0 0 0 0 0 0 0 0
0 0 0 0 0 0 0 0 0 0 0 0 0 0 0 0 0 0 0 0 0 0 0 0 0 0 0 0 0 0 0 0 0 0 0 0 0 0 0 0 0 0 0 0
0 0 0 0 0 0 0 0 0 0 0 0 0 0 0 0 0 0 0 0 0 0 0 0 0 0 0 0 0 0 0 0 0 0 0 0 0 0 0 0 0 0 0 0
0 0 0 0 0 0 0 0 0 0 0 0 0 0 0 0 0 0 0 0 0 0 0 0 0 0 0 0 0 0 0 0 0 0 0 0 0 0 0 0 0 0 0 0
Wind_Speed
7 6 14 21 22 23 19 20 25 19 8 12 19 23 25 20 19 19 19 17 17 20 17 18 15 11 11 9 13 16 16 14 11 8 9 9 9 9 9 8 10 12 12 13
6 14 24 21 20 22 23 24 28 25 18 14 21 26 24 22 20 21 21 19 17 17 17 13 12 8 9 8 12 16 16 16 14 9 9 6 8 8 9 9 9 12 13 14
11 20 13 17 19 20 22 26 25 25 11 17 20 22 24 24 21 23 23 21 19 20 17 15 12 8 6 3 3 12 16 15 14 14 9 6 5 2 6 9 9 11 13 13
13 16 13 15 23 21 23 24 26 23 13 12 15 10 16 19 20 22 23 21 20 20 18 13 10 6 3 4 1 4 5 14 16 15 13 17 12 12 11 11 10 10 14 16
13 16 17 17 25 18 19 12 12 17 15 19 22 10 16 20 18 21 22 20 21 21 17 13 8 3 1 3 1 2 3 6 5 16 16 14 14 9 7 8 12 13 13 14
23 16 16 16 15 12 4 2 5 9 10 14 17 18 17 18 21 23 23 20 22 15 9 8 6 5 3 3 2 4 6 7 5 7 2 4 11 14 11 10 8 9 10 10
17 4 4 5 5 3 5 6 3 5 7 9 2 12 17 11 8 9 13 20 15 15 11 9 8 8 4 6 4 6 6 8 7 6 8 7 7 9 6 11 10 10 10 9
11 11 2 2 7 5 11 7 5 7 5 4 4 8 3 12 12 16 17 14 17 14 9 7 6 9 6 7 6 9 8 10 8 8 7 4 6 4 5 2 8 9 9 9
9 8 4 12 9 4 6 11 5 6 5 7 7 2 4 16 8 11 17 15 14 12 10 8 8 9 8 7 10 10 9 9 10 9 6 7 8 6 6 6 5 4 5 4
5 12 2 6 5 3 6 2 5 6 5 6 4 4 11 15 11 12 16 14 14 12 12 10 7 9 8 10 10 11 12 10 14 11 10 10 8 7 7 7 8 5 8 9
8 5 9 7 7 12 7 5 6 4 6 5 4 4 13 13 11 10 12 12 13 13 13 9 6 8 9 12 12 12 12 14 14 10 9 11 9 8 8 8 9 6 9 9
4 5 8 5 3 14 8 11 5 5 3 5 3 5 15 11 11 10 14 14 13 13 11 8 8 8 11 13 15 13 13 14 11 9 11 11 11 9 11 11 10 10 11 10
9 6 8 7 3 16 8 20 5 8 4 15 5 5 10 14 15 15 13 13 14 16 9 8 12 10 12 14 13 14 13 13 10 9 10 11 9 10 10 11 10 10 11 12
4 4 7 9 9 12 18 27 26 11 10 13 12 11 15 16 15 13 14 16 14 12 10 11 11 12 11 12 12 12 10 9 10 8 10 10 9 10 9 10 11 10 10 11
6 4 3 5 13 19 24 24 25 24 15 11 11 17 15 14 13 14 13 14 13 14 13 13 12 11 11 12 12 11 11 10 10 8 10 10 8 9 10 10 10 9 12 10
10 3 3 1 8 10 21 24 21 21 13 14 12 17 12 13 14 17 14 12 12 13 12 11 12 13 12 12 11 10 11 10 10 9 11 8 8 9 10 10 9 10 10 10
8 7 6 3 8 8 12 16 16 12 16 9 13 8 10 16 17 16 13 14 13 11 12 15 14 11 10 10 9 10 10 11 11 10 8 10 10 10 10 10 11 10 10 10
6 4 3 3 5 7 4 9 5 7 18 16 10 9 9 12 12 14 15 13 14 14 14 14 12 13 12 10 11 10 11 12 11 12 12 11 8 9 10 11 11 10 8 9
3 3 3 3 3 1 2 6 7 8 12 15 13 13 9 3 7 16 16 13 12 12 11 11 11 10 10 11 9 10 11 11 11 11 10 9 9 10 10 10 9 7 8 9
1 4 0 2 5 6 3 2 3 4 10 15 12 8 7 4 10 6 10 11 11 11 10 9 9 9 10 8 8 10 10 11 11 9 8 7 8 8 8 7 8 7 7 8
6 5 5 3 3 4 3 11 0 3 4 9 9 9 11 7 5 3 3 8 7 8 8 7 9 9 9 8 7 10 9 10 6 5 6 7 7 7 6 6 5 5 6 5
2 3 2 1 3 4 7 4 4 2 2 2 4 7 10 8 7 5 6 7 7 8 8 8 8 8 8 8 7 9 9 6 5 5 6 6 5 4 4 5 5 5 4 4
0 1 2 2 2 3 4 4 3 1 2 3 3 3 6 5 4 3 4 5 6 6 5 5 5 6 7 8 7 7 4 5 4 4 4 4 4 4 3 3 3 3 2 2
3 3 2 1 2 3 2 2 1 3 3 3 3 1 2 5 3 4 4 6 5 5 5 3 4 7 8 7 6 5 5 3 3 4 3 3 3 3 3 2 2 1 1 1
2 4 2 3 3 2 4 4 1 1 2 2 2 2 4 5 3 3 4 4 4 4 4 4 5 5 6 5 5 5 4 4 3 1 1 0 0 1 1 1 2 1 2 1
8 6 4 2 2 1 2 4 3 3 2 2 1 3 2 2 4 3 4 2 2 4 3 5 6 5 6 6 6 8 8 7 5 4 4 3 3 2 2 2 3 4 6 4
Wind_Direction
196 212 227 230 222 239 272 268 269 271 279 252 242 254 263 262 261 259 256 255 252 260 264 260 246 242 255 247 203 191 186 184 180 187 178 169 184 195 205 197 188 191 197 195
231 229 240 252 254 248 249 257 259 269 254 236 258 258 261 263 257 259 260 249 247 253 257 250 227 231 244 262 206 197 194 186 180 189 182 181 189 197 205 200 190 195 199 197
255 261 271 254 255 250 236 239 256 254 280 237 266 268 262 258 247 253 250 249 248 247 253 247 229 224 246 232 359 216 196 192 187 191 181 173 175 176 209 202 202 202 197 198
254 265 264 256 252 244 254 237 249 262 255 250 199 270 261 250 241 240 247 236 231 239 238 242 215 219 246 279 2 316 335 198 193 201 195 200 200 197 201 199 202 197 199 203
262 284 273 255 260 270 269 288 234 240 250 264 246 254 256 249 254 247 244 233 224 228 229 202 187 176 27 325 335 332 17 52 318 188 195 199 208 205 185 205 207 203 202 207
258 263 275 265 275 256 296 132 201 236 246 245 247 221 261 244 243 253 242 221 216 205 158 149 149 135 87 37 10 52 83 53 60 15 345 229 231 208 194 184 194 204 202 202
313 256 282 250 258 171 164 161 208 222 217 255 315 207 256 325 237 242 264 210 175 153 141 150 151 116 84 58 39 77 70 67 40 44 41 38 342 309 165 193 198 206 208 200
339 319 204 161 234 253 192 192 195 239 222 287 145 239 228 312 273 262 259 147 143 116 123 134 132 99 94 69 49 64 70 69 57 49 29 39 25 341 298 33 233 203 208 207
306 268 246 288 277 216 167 217 200 275 242 271 198 308 209 349 312 156 118 129 103 106 113 105 89 91 84 73 60 57 69 65 66 49 55 41 37 29 6 4 24 109 97 110
283 288 245 307 294 269 259 106 192 209 264 233 94 59 336 339 6 113 107 106 100 104 99 77 81 93 89 85 71 64 65 60 53 46 42 44 33 38 39 26 52 29 71 77
277 249 308 322 30 345 317 266 246 235 238 312 61 28 343 7 25 73 94 94 95 92 77 68 64 73 83 74 70 65 56 53 52 37 41 50 33 38 49 51 42 35 65 69
276 306 305 308 343 353 291 291 234 272 78 48 76 46 352 20 34 63 76 78 78 77 66 67 68 77 73 74 64 55 50 49 41 42 48 48 44 35 49 43 33 43 52 59
328 347 324 344 326 2 352 19 45 45 21 25 40 10 354 24 34 38 65 72 69 61 62 62 54 57 58 62 59 55 45 46 20 36 48 47 47 48 41 48 40 41 50 50
324 26 24 13 349 350 19 25 33 48 59 63 56 52 19 27 35 41 50 58 60 62 58 64 54 50 53 54 48 57 52 56 49 31 48 49 41 48 48 50 47 42 53 55
36 348 355 65 41 34 31 23 27 43 34 51 46 51 27 31 42 46 56 57 57 59 53 54 54 48 48 53 54 51 50 49 63 51 53 44 38 50 56 52 58 53 58 55
360 306 330 236 340 28 33 20 26 32 24 49 50 53 16 31 41 44 45 52 55 58 56 56 55 51 46 48 51 53 49 44 55 48 57 43 51 52 49 46 44 61 64 61
350 334 353 14 353 338 30 360 359 22 24 15 39 32 28 41 40 27 40 51 54 57 62 65 63 63 62 58 57 56 63 60 57 58 44 54 50 58 58 65 56 35 63 70
309 332 336 329 323 32 47 348 334 9 31 12 28 34 52 63 54 36 27 44 48 48 52 56 57 58 56 64 67 69 65 65 58 53 48 45 47 57 63 70 73 72 49 61
227 291 40 50 30 123 85 21 5 356 30 18 6 6 5 59 55 39 27 34 40 46 48 51 52 59 62 58 63 71 65 64 62 53 50 46 52 55 50 52 57 63 79 78
301 16 139 24 59 21 37 352 339 298 39 7 7 28 28 334 73 39 4 25 37 44 42 49 48 55 57 50 65 75 68 64 58 51 51 52 48 54 69 70 57 48 63 72
339 9 46 55 75 288 331 323 266 61 11 353 17 42 69 76 55 77 52 62 50 48 48 55 60 56 40 39 61 69 69 59 51 61 63 52 50 55 56 70 68 68 68 65
322 355 46 184 68 1 17 298 66 42 344 28 61 53 82 88 92 83 65 59 52 52 41 28 48 47 30 28 56 64 59 32 40 47 55 49 49 53 65 75 67 64 69 74
20 250 326 231 97 326 320 8 22 351 31 26 63 84 105 108 93 66 82 72 52 39 41 23 55 67 37 28 26 65 33 19 31 51 48 42 36 37 29 69 83 88 80 93
203 167 258 281 177 232 307 318 347 22 84 82 66 45 85 100 75 63 39 30 40 42 48 27 57 54 45 20 34 36 15 9 37 59 33 16 10 13 27 33 20 94 138 111
27 146 188 269 253 263 222 240 259 83 93 126 98 57 114 126 115 98 91 71 55 49 27 24 37 42 41 30 44 29 3 345 15 49 83 70 142 0 331 296 284 271 244 285
186 179 182 200 172 120 128 146 140 166 159 47 106 115 61 35 96 99 87 72 61 58 37 43 36 34 23 18 24 11 2 359 356 353 1 353 331 326 321 327 320 247 272 275